Simultaneous Nadir Overpasses (SNOs) Predictions

Prediction of SNOs between GOES-15 and METOP-C Satellite Orbit:

Table of predicted SNOs for the next 14.0 days since TLE Epoch: 2/21/2025
Index Date Time (GOES-15) GOES-15 Lat,Lon METOP-C Lat,Lon Distance(km) Time Diff (sec)
1 02/22/2025 17:22:02 0.01, 61.39 0.13, 61.90 57.49 80
2 02/24/2025 05:40:51 -0.02, 61.42 0.92, 57.35 464.27 80
3 02/25/2025 05:22:52 -0.01, 61.41 -0.25, 62.33 105.83 80
4 02/26/2025 17:41:51 0.02, 61.38 -0.78, 57.74 414.17 80
5 02/27/2025 17:18:30 0.01, 61.38 0.33, 62.74 155.20 80
6 03/01/2025 05:37:20 -0.02, 61.42 0.70, 58.19 367.54 80
7 03/02/2025 05:19:19 -0.01, 61.41 -0.42, 63.19 202.30 80
8 03/03/2025 17:38:18 0.02, 61.38 -0.59, 58.59 317.65 80
9 03/04/2025 17:14:58 0.02, 61.39 0.54, 63.59 251.15 80
10 03/06/2025 05:33:47 -0.03, 61.44 0.48, 59.03 273.55 80
11 03/07/2025 05:15:46 -0.02, 61.45 -0.59, 64.04 295.46 80
